Location: Asheville, NC
(35.6000°N, 82.5500°W)
Time: 20:38:14
(UTC-04:00)

Vanguard 3 - Pass Details

Date: 13 March 2018
Orbit: 508 x 3264 km, 33.3° (Epoch: 20 June)

Event Time Altitude Azimuth Distance (km) Brightness Sun altitude
Rises 12:00:32 0° 263° (W) 7,156 11.8 45.2°
Reaches altitude 10° 12:05:38 10° 263° (W) 5,971 11.5 45.8°
Maximum altitude 12:23:23 82° 180° (S) 2,242 10.5 47.7°
Drops below altitude 10° 12:33:37 10° 94° (E) 3,675 10.9 48.7°
Sets 12:36:01 0° 93° (E) 4,369 11.1 48.9°
